Location: Kunchanapalle
(16.4623°N, 80.6176°E)
Time: 18:17:17
(UTC+00:00)

CZ-4B R/B - Pass Details

Date: 13 August 2020
Orbit: 391 x 463 km, 97.6° (Epoch: 17 September)

Event Time Altitude Azimuth Distance (km) Brightness Sun altitude
Rises 22:54:46 0° 152° (SSE) 2,424 5.2 -20.5°
Reaches altitude 10° 22:56:56 10° 142° (SE) 1,543 4.3 -20.0°
Maximum altitude 22:59:54 32° 77° (ENE) 767 3.2 -19.4°
Drops below altitude 10° 23:02:49 10° 13° (NNE) 1,509 4.5 -18.7°
Sets 23:04:55 0° 2° (N) 2,361 5.4 -18.2°
